period_start,C,m1,H,J0,J1,J2,J3,J4,J5,JA,JB,JC,JD,JJ,JK,JN,#
2016-07-31 00:00:48,0.01,2.17,0.00,26.09,29.70,32.41,14.24,47.98,1011.70,2027.00,2641.98,2493.11,2808.00,599.78,586.74,40.83,0000 0000 0000 0000 000000
2016-07-31 00:05:49,0.00,2.17,0.00,26.11,29.72,32.36,14.30,48.08,1011.72,2026.98,2641.95,2493.05,2808.00,600.38,587.33,40.88,0000 0000 0000 0000 000000
2016-07-31 00:10:50,0.01,2.17,0.00,26.12,29.73,32.38,14.24,47.96,1011.73,2026.98,2641.72,2493.01,2807.99,599.98,587.06,40.93,0000 0000 0000 0000 000000
2016-07-31 00:15:52,-0.00,2.17,0.00,26.14,29.75,32.40,14.27,48.04,1011.73,2026.97,2641.41,2493.00,2807.98,599.84,586.74,40.98,0000 0000 0000 0000 000000
2016-07-31 00:20:53,0.01,2.17,0.00,26.15,29.76,32.41,14.27,47.98,1011.73,2026.94,2641.05,2493.00,2807.78,599.75,586.73,41.03,0000 0000 0000 0000 000000
2016-07-31 00:25:54,-0.01,2.17,0.00,26.17,29.77,32.40,14.34,47.91,1011.73,2026.82,2641.00,2492.97,2807.19,600.44,587.30,41.08,0000 0000 0000 0000 000000
2016-07-31 00:30:55,-0.02,2.17,0.00,26.18,29.78,32.42,14.29,47.88,1011.74,2026.41,2640.98,2492.85,2807.01,600.03,586.96,41.13,0000 0000 0000 0000 000000
2016-07-31 00:35:56,-0.02,2.17,0.00,26.21,29.80,32.41,14.26,47.86,1011.73,2026.19,2640.95,2492.60,2807.00,599.96,586.91,41.18,0000 0000 0000 0000 000000
2016-07-31 00:40:58,0.02,2.17,0.00,26.22,29.82,32.44,14.23,47.79,1011.73,2026.07,2640.72,2492.14,2806.99,599.84,586.68,41.23,0000 0000 0000 0000 000000
2016-07-31 00:45:59,0.01,2.17,0.00,26.23,29.83,32.44,14.22,47.72,1011.73,2026.05,2640.25,2492.03,2806.97,599.89,586.71,41.28,0000 0000 0000 0000 000000
2016-07-31 00:51:00,0.00,2.17,0.00,26.25,29.85,32.41,14.31,47.61,1011.73,2026.05,2640.07,2492.01,2806.92,600.26,586.88,41.33,0000 0000 0000 0000 000000
2016-07-31 00:56:01,0.01,2.17,0.00,26.26,29.87,32.43,14.22,47.80,1011.73,2026.02,2640.00,2491.99,2806.27,599.99,586.55,41.38,0000 0000 0000 0000 000000
2016-07-31 01:01:02,0.00,2.17,0.00,26.24,29.88,32.43,14.30,47.83,1011.75,2026.01,2639.85,2491.98,2806.02,600.48,587.10,41.43,0000 0000 0000 0000 000000
2016-07-31 01:06:04,0.00,2.17,0.00,26.28,29.90,32.44,14.20,47.77,1011.76,2026.00,2639.79,2491.92,2806.00,599.94,586.66,41.48,0000 0000 0000 0000 000000
2016-07-31 01:11:05,0.04,2.17,0.00,26.32,29.92,32.48,14.17,47.77,1011.77,2026.00,2639.24,2491.36,2805.96,599.74,586.36,41.53,0000 0000 0000 0000 000000
2016-07-31 01:16:06,0.01,2.17,0.00,26.33,29.95,32.49,14.15,47.99,1011.76,2026.00,2639.02,2491.07,2805.88,599.74,586.40,41.58,0000 0000 0000 0000 000000
2016-07-31 01:21:07,0.01,2.17,0.00,26.32,29.96,32.53,14.32,48.08,1011.75,2025.98,2639.00,2491.00,2805.32,599.77,586.30,41.63,0000 0000 0000 0000 000000
2016-07-31 01:26:08,0.01,2.17,0.00,26.35,29.97,32.52,14.21,48.03,1011.73,2025.97,2638.64,2490.99,2805.02,600.05,586.57,41.69,0000 0000 0000 0000 000000
2016-07-31 01:31:09,0.01,2.18,0.00,26.36,30.00,32.54,14.23,48.01,1011.69,2025.96,2638.06,2490.92,2804.99,599.63,586.14,41.74,0000 0000 0000 0000 000000
2016-07-31 01:36:10,0.00,2.18,0.00,26.38,30.01,32.55,14.29,47.92,1011.73,2025.91,2637.99,2490.62,2804.94,600.14,586.56,41.79,0000 0000 0000 0000 000000
2016-07-31 01:41:12,-0.00,2.18,0.00,26.39,30.03,32.57,14.29,48.06,1011.73,2025.70,2637.92,2490.12,2804.45,600.21,586.68,41.84,0000 0000 0000 0000 000000
2016-07-31 01:46:13,-0.02,2.18,0.00,26.40,30.05,32.60,14.28,47.98,1011.73,2025.35,2637.60,2490.01,2804.07,599.81,586.37,41.89,0000 0000 0000 0000 000000
2016-07-31 01:51:14,0.00,2.18,0.00,26.43,30.07,32.62,14.19,47.89,1011.72,2025.17,2637.04,2490.00,2804.00,599.87,586.25,41.94,0000 0000 0000 0000 000000
2016-07-31 01:56:15,-0.01,2.18,0.00,26.46,30.08,32.63,14.23,47.99,1011.72,2025.19,2636.98,2489.96,2803.99,599.73,586.06,41.99,0000 0000 0000 0000 000000
2016-07-31 02:01:17,0.02,2.18,0.00,26.47,30.10,32.62,14.14,47.85,1011.68,2025.06,2636.58,2489.74,2803.81,599.64,585.95,42.04,0000 0000 0000 0000 000000
2016-07-31 02:06:18,0.03,2.18,0.00,26.50,30.11,32.62,14.27,48.00,1011.61,2025.03,2636.11,2489.23,2803.31,599.94,586.05,42.09,0000 0000 0000 0000 000000
2016-07-31 02:11:19,0.00,2.18,0.00,26.52,30.13,32.64,14.22,47.86,1011.66,2025.00,2635.99,2489.02,2803.01,599.97,586.13,42.14,0000 0000 0000 0000 000000
2016-07-31 02:16:20,0.00,2.18,0.00,26.55,30.15,32.67,14.17,47.71,1011.71,2025.00,2635.88,2489.00,2803.00,599.86,585.94,42.19,0000 0000 0000 0000 000000
2016-07-31 02:21:22,0.01,2.18,0.00,26.57,30.16,32.69,14.18,47.83,1011.61,2025.00,2635.64,2488.99,2802.95,600.05,586.18,42.24,0000 0000 0000 0000 000000
2016-07-31 02:26:23,0.02,2.18,0.00,26.58,30.18,32.71,14.28,47.95,1011.51,2025.00,2635.10,2488.94,2802.45,600.18,586.13,42.29,0000 0000 0000 0000 000000
2016-07-31 02:31:24,0.02,2.18,0.00,26.61,30.20,32.68,14.25,47.59,1011.42,2024.99,2634.99,2488.46,2802.07,600.02,585.87,42.34,0000 0000 0000 0000 000000
2016-07-31 02:36:25,0.01,2.18,0.00,26.63,30.22,32.69,14.27,48.02,1011.32,2024.98,2634.81,2488.07,2802.00,600.21,585.93,42.39,0000 0000 0000 0000 000000
2016-07-31 02:41:26,0.01,2.18,0.00,26.66,30.24,32.72,14.24,47.92,1011.30,2024.95,2634.20,2488.01,2801.97,600.28,585.96,42.44,0000 0000 0000 0000 000000
2016-07-31 02:46:28,0.00,2.18,0.00,26.68,30.26,32.76,14.20,47.80,1011.27,2024.88,2634.01,2488.00,2801.75,599.81,585.46,42.49,0000 0000 0000 0000 000000
2016-07-31 02:51:29,-0.02,2.18,0.00,26.71,30.27,32.78,14.24,47.90,1011.26,2024.59,2633.94,2487.96,2801.14,600.23,585.79,42.54,0000 0000 0000 0000 000000
2016-07-31 02:56:30,-0.02,2.18,0.00,26.72,30.30,32.76,14.20,47.95,1011.26,2024.19,2633.86,2487.77,2801.01,599.78,585.40,42.59,0000 0000 0000 0000 000000
2016-07-31 03:01:32,0.02,2.18,0.00,26.76,30.32,32.77,14.25,47.85,1011.25,2024.08,2633.41,2487.31,2800.99,599.86,585.24,42.64,0000 0000 0000 0000 000000
2016-07-31 03:06:33,0.00,2.18,0.00,26.78,30.34,32.81,14.31,48.02,1011.25,2024.01,2633.02,2487.02,2800.95,600.36,585.72,42.70,0000 0000 0000 0000 000000
2016-07-31 03:11:35,0.01,2.18,0.00,26.81,30.36,32.82,14.17,48.03,1011.26,2024.00,2633.00,2487.00,2800.44,599.83,585.34,42.75,0000 0000 0000 0000 000000
2016-07-31 03:16:36,0.01,2.18,0.00,26.86,30.38,32.82,14.20,47.93,1011.26,2024.00,2632.88,2486.97,2800.04,600.09,585.38,42.80,0000 0000 0000 0000 000000
2016-07-31 03:21:37,0.02,2.18,0.00,26.88,30.41,32.88,14.20,47.99,1011.25,2023.99,2632.40,2486.72,2800.00,599.96,585.29,42.85,0000 0000 0000 0000 000000
2016-07-31 03:26:38,0.02,2.19,0.00,26.90,30.42,32.89,14.19,48.00,1011.25,2023.98,2632.01,2486.12,2799.99,599.92,585.10,42.90,0000 0000 0000 0000 000000
2016-07-31 03:31:40,0.00,2.19,0.00,26.90,30.45,32.91,14.20,48.02,1011.25,2023.95,2632.00,2486.02,2799.87,600.05,585.18,42.95,0000 0000 0000 0000 000000
2016-07-31 03:36:41,-0.01,2.19,0.00,26.92,30.47,32.92,14.20,48.10,1011.24,2023.79,2631.71,2486.00,2799.20,599.88,585.04,43.00,0000 0000 0000 0000 000000
2016-07-31 03:41:42,-0.03,2.18,0.00,26.95,30.50,32.96,14.18,48.06,1011.24,2023.33,2631.19,2485.98,2799.00,599.78,584.85,43.05,0000 0000 0000 0000 000000
2016-07-31 03:46:44,-0.01,2.18,0.00,26.99,30.52,33.01,14.18,48.01,1011.26,2023.07,2631.05,2485.81,2798.99,599.93,584.94,43.10,0000 0000 0000 0000 000000
2016-07-31 03:51:45,0.02,2.19,0.00,27.01,30.54,33.02,14.18,47.84,1011.25,2023.06,2630.96,2485.18,2798.86,600.01,584.97,43.15,0000 0000 0000 0000 000000
2016-07-31 03:56:47,0.01,2.19,0.00,27.02,30.56,33.01,14.17,48.11,1011.25,2023.03,2630.95,2485.07,2798.41,599.80,584.59,43.20,0000 0000 0000 0000 000000
2016-07-31 04:01:48,0.01,2.19,0.00,27.07,30.59,33.02,14.19,48.18,1011.25,2023.00,2630.63,2485.00,2798.02,600.01,584.84,43.25,0000 0000 0000 0000 000000
2016-07-31 04:06:49,0.00,2.19,0.00,27.09,30.61,33.06,14.24,48.00,1011.25,2022.99,2630.07,2484.98,2798.00,600.36,585.17,43.30,0000 0000 0000 0000 000000
2016-07-31 04:11:51,0.00,2.19,0.00,27.12,30.64,33.11,14.21,47.92,1011.13,2022.97,2630.01,2484.94,2797.98,600.09,584.72,43.35,0000 0000 0000 0000 000000
2016-07-31 04:16:52,0.01,2.19,0.00,27.14,30.66,33.12,14.26,48.19,1011.16,2022.89,2629.99,2484.57,2797.82,600.42,584.92,43.40,0000 0000 0000 0000 000000
2016-07-31 04:21:53,-0.00,2.19,0.00,27.15,30.68,33.11,14.16,47.94,1011.20,2022.63,2629.94,2484.18,2797.28,599.74,584.38,43.45,0000 0000 0000 0000 000000
2016-07-31 04:26:54,-0.02,2.19,0.00,27.18,30.71,33.16,14.18,48.06,1011.14,2022.12,2629.44,2484.01,2797.02,599.38,584.00,43.50,0000 0000 0000 0000 000000
2016-07-31 04:31:55,-0.00,2.19,0.00,27.21,30.73,33.19,14.15,48.04,1011.04,2022.02,2629.20,2484.00,2797.00,600.11,584.57,43.55,0000 0000 0000 0000 000000
2016-07-31 04:36:56,-0.00,2.19,0.00,27.21,30.76,33.18,14.14,48.02,1010.82,2022.00,2629.13,2483.99,2796.97,600.22,584.61,43.61,0000 0000 0000 0000 000000
2016-07-31 04:41:57,0.00,2.19,0.00,27.27,30.78,33.21,14.14,48.00,1010.94,2022.00,2629.00,2483.98,2796.81,599.60,583.87,43.66,0000 0000 0000 0000 000000
2016-07-31 04:46:58,0.05,2.19,0.00,27.29,30.81,33.26,14.19,47.88,1010.82,2021.99,2628.67,2483.51,2796.21,599.94,584.12,43.71,0000 0000 0000 0000 000000
2016-07-31 04:51:59,0.01,2.19,0.00,27.33,30.83,33.28,14.18,47.98,1010.78,2021.98,2628.07,2483.03,2796.00,599.99,584.07,43.76,0000 0000 0000 0000 000000
2016-07-31 04:57:01,-0.00,2.19,0.00,27.36,30.86,33.30,14.17,47.97,1010.77,2021.93,2628.00,2483.00,2795.95,599.79,583.84,43.81,0000 0000 0000 0000 000000
2016-07-31 05:02:02,0.02,2.19,0.00,27.39,30.88,33.32,14.20,47.99,1010.77,2021.79,2627.52,2482.92,2795.36,599.50,583.37,43.86,0000 0000 0000 0000 000000
2016-07-31 05:07:03,-0.00,2.19,0.00,27.41,30.91,33.35,14.18,47.87,1010.76,2021.47,2627.02,2482.38,2795.00,599.95,583.82,43.91,0000 0000 0000 0000 000000
2016-07-31 05:12:05,-0.02,2.19,0.00,27.44,30.94,33.35,14.21,48.09,1010.76,2021.12,2627.00,2482.04,2794.99,600.12,583.95,43.96,0000 0000 0000 0000 000000
2016-07-31 05:17:06,0.08,2.19,0.00,27.48,30.96,33.40,14.21,48.11,1010.76,2021.04,2625.58,2481.40,2794.23,600.19,583.84,44.01,0000 0000 0000 0000 000000
2016-07-31 05:22:07,0.02,2.19,0.00,27.49,30.99,33.43,14.12,48.02,1010.76,2021.00,2625.00,2481.00,2793.45,599.90,583.55,44.06,0000 0000 0000 0000 000000
2016-07-31 05:27:08,0.02,2.20,0.00,27.52,31.02,33.46,14.08,47.92,1010.76,2021.00,2624.70,2480.98,2793.02,599.45,583.16,44.11,0000 0000 0000 0000 000000
2016-07-31 05:32:10,0.03,2.20,0.00,27.55,31.05,33.47,14.12,47.98,1010.76,2020.99,2624.11,2480.55,2792.98,600.05,583.64,44.16,0000 0000 0000 0000 000000
2016-07-31 05:37:12,0.00,2.20,0.00,27.57,31.07,33.49,14.13,47.88,1010.76,2020.98,2623.96,2480.09,2792.82,599.93,583.64,44.21,0000 0000 0000 0000 000000
2016-07-31 05:42:13,-0.00,2.20,0.00,27.61,31.10,33.54,14.19,47.80,1010.75,2020.67,2623.14,2480.00,2792.06,600.21,583.72,44.26,0000 0000 0000 0000 000000
2016-07-31 05:47:14,-0.02,2.20,0.00,27.63,31.13,33.57,14.14,47.81,1010.72,2020.24,2623.00,2479.78,2791.95,599.74,583.17,44.31,0000 0000 0000 0000 000000
2016-07-31 05:52:15,0.02,2.20,0.00,27.65,31.15,33.58,14.13,47.92,1010.66,2020.04,2622.93,2479.14,2791.42,599.95,583.36,44.36,0000 0000 0000 0000 000000
2016-07-31 05:57:16,0.02,2.20,0.00,27.69,31.18,33.61,14.13,47.84,1010.74,2020.00,2622.32,2479.00,2791.04,599.92,583.28,44.41,0000 0000 0000 0000 000000
2016-07-31 06:02:17,0.00,2.20,0.00,27.72,31.21,33.64,14.16,47.96,1010.75,2020.00,2622.01,2478.98,2790.99,600.33,583.62,44.46,0000 0000 0000 0000 000000
2016-07-31 06:07:19,0.04,2.20,0.00,27.75,31.23,33.65,14.20,47.97,1010.76,2020.00,2621.70,2478.66,2790.65,600.13,583.39,44.51,0000 0000 0000 0000 000000
2016-07-31 06:12:20,0.03,2.20,0.00,27.77,31.26,33.67,14.15,47.98,1010.76,2020.00,2621.05,2478.07,2790.07,600.23,583.40,44.57,0000 0000 0000 0000 000000
2016-07-31 06:17:21,0.01,2.20,0.00,27.79,31.28,33.71,14.10,47.99,1010.76,2020.00,2620.51,2477.99,2789.98,599.57,582.85,44.62,0000 0000 0000 0000 000000
2016-07-31 06:22:22,0.02,2.20,0.00,27.79,31.31,33.73,14.07,47.89,1010.75,2019.99,2620.00,2477.84,2789.47,600.19,583.31,44.67,0000 0000 0000 0000 000000
2016-07-31 06:27:24,0.04,2.21,0.00,27.82,31.33,33.77,14.18,47.89,1010.71,2019.99,2619.66,2477.19,2789.02,600.14,583.22,44.72,0000 0000 0000 0000 000000
2016-07-31 06:32:25,0.01,2.21,0.00,27.85,31.35,33.78,14.21,47.94,1010.75,2019.96,2619.03,2477.00,2788.95,600.38,583.37,44.77,0000 0000 0000 0000 000000
2016-07-31 06:37:26,0.01,2.21,0.00,27.87,31.37,33.80,14.12,47.88,1010.76,2019.87,2618.88,2476.97,2788.53,600.03,582.98,44.82,0000 0000 0000 0000 000000
2016-07-31 06:42:27,0.03,2.21,0.00,27.88,31.39,33.81,14.08,47.69,1010.74,2019.53,2617.49,2476.18,2787.87,599.83,582.77,44.87,0000 0000 0000 0000 000000
2016-07-31 06:47:28,0.01,2.21,0.00,27.90,31.41,33.84,14.20,47.93,1010.66,2019.19,2616.45,2475.96,2787.08,600.10,583.00,44.92,0000 0000 0000 0000 000000
2016-07-31 06:52:30,0.01,2.21,0.00,27.91,31.44,33.86,14.18,47.93,1010.69,2019.04,2616.01,2475.40,2787.00,600.29,583.19,44.97,0000 0000 0000 0000 000000
2016-07-31 06:57:31,0.00,2.21,0.00,27.94,31.46,33.89,14.13,47.80,1010.63,2019.00,2616.00,2475.06,2786.93,600.00,582.87,45.02,0000 0000 0000 0000 000000
2016-07-31 07:02:32,0.01,2.21,0.00,27.97,31.48,33.92,14.06,47.72,1010.70,2019.00,2615.96,2475.00,2786.48,599.90,582.83,45.07,0000 0000 0000 0000 000000
2016-07-31 07:07:33,0.02,2.21,0.00,27.97,31.51,33.94,14.16,47.87,1010.70,2019.00,2615.40,2475.00,2786.06,599.93,582.73,45.12,0000 0000 0000 0000 000000
2016-07-31 07:12:35,0.00,2.21,0.00,28.00,31.53,33.97,14.17,47.83,1010.60,2018.99,2615.01,2474.89,2786.00,600.17,582.77,45.17,0000 0000 0000 0000 000000
2016-07-31 07:17:36,0.02,2.21,0.00,28.01,31.55,33.99,14.12,47.84,1010.43,2018.98,2614.97,2474.36,2785.96,599.67,582.25,45.22,0000 0000 0000 0000 000000
2016-07-31 07:22:37,0.03,2.22,0.00,28.02,31.57,34.01,14.10,47.63,1010.36,2018.95,2614.45,2474.02,2785.50,599.70,582.26,45.27,0000 0000 0000 0000 000000
2016-07-31 07:27:38,0.01,2.22,0.00,28.04,31.60,34.03,14.10,47.72,1010.31,2018.95,2614.01,2474.00,2785.07,599.76,582.18,45.32,0000 0000 0000 0000 000000
2016-07-31 07:32:40,-0.01,2.22,0.00,28.06,31.62,34.05,14.16,47.93,1010.30,2018.87,2613.92,2473.94,2785.00,600.05,582.47,45.37,0000 0000 0000 0000 000000
2016-07-31 07:37:41,0.05,2.22,0.00,28.07,31.64,34.10,14.14,47.90,1010.35,2018.91,2613.16,2473.55,2784.78,599.85,582.26,45.42,0000 0000 0000 0000 000000
2016-07-31 07:42:43,0.00,2.22,0.00,28.07,31.66,34.13,14.15,47.92,1010.38,2018.75,2612.90,2473.03,2784.15,599.72,582.19,45.48,0000 0000 0000 0000 000000
2016-07-31 07:47:44,0.01,2.22,0.00,28.08,31.68,34.15,14.12,47.83,1010.44,2018.59,2612.11,2472.95,2784.01,599.83,582.24,45.53,0000 0000 0000 0000 000000
2016-07-31 07:52:45,0.00,2.22,0.00,28.09,31.70,34.14,14.20,47.76,1010.52,2018.36,2611.76,2472.47,2783.97,600.07,582.58,45.58,0000 0000 0000 0000 000000
2016-07-31 07:57:47,0.02,2.22,0.00,28.09,31.72,34.16,14.16,47.73,1010.44,2018.17,2611.08,2472.06,2783.54,600.19,582.63,45.63,0000 0000 0000 0000 000000
2016-07-31 08:02:48,0.00,2.22,0.00,28.09,31.73,34.17,14.13,47.70,1010.40,2018.11,2610.95,2472.00,2783.04,600.13,582.51,45.68,0000 0000 0000 0000 000000
2016-07-31 08:07:49,0.01,2.22,0.00,28.13,31.75,34.18,14.13,47.73,1010.34,2018.04,2610.45,2471.98,2783.00,600.06,582.32,45.73,0000 0000 0000 0000 000000
2016-07-31 08:12:50,0.02,2.22,0.00,28.14,31.76,34.25,14.12,47.75,1010.30,2018.01,2610.06,2471.83,2782.83,599.97,582.32,45.78,0000 0000 0000 0000 000000
2016-07-31 08:17:52,0.03,2.23,0.00,28.16,31.78,34.23,14.17,47.68,1010.28,2018.00,2610.01,2471.20,2782.12,600.09,582.23,45.83,0000 0000 0000 0000 000000
2016-07-31 08:22:53,0.00,2.23,0.00,28.18,31.80,34.25,14.12,47.78,1010.27,2018.00,2609.96,2471.02,2782.00,599.72,581.92,45.88,0000 0000 0000 0000 000000
2016-07-31 08:27:54,0.01,2.23,0.00,28.18,31.81,34.27,14.14,47.71,1010.28,2018.00,2609.57,2471.00,2782.00,599.85,581.97,45.93,0000 0000 0000 0000 000000
2016-07-31 08:32:55,0.01,2.23,0.00,28.21,31.83,34.27,14.09,47.38,1010.28,2017.99,2609.03,2470.97,2781.90,599.85,581.88,45.98,0000 0000 0000 0000 000000
2016-07-31 08:37:57,0.01,2.23,0.00,28.23,31.85,34.29,14.05,47.59,1010.27,2017.97,2608.99,2470.75,2781.29,599.86,581.78,46.03,0000 0000 0000 0000 000000
2016-07-31 08:42:58,0.02,2.23,0.00,28.25,31.86,34.28,14.16,47.63,1010.26,2017.95,2608.73,2470.28,2781.02,599.80,581.77,46.08,0000 0000 0000 0000 000000
2016-07-31 08:47:59,0.02,2.23,0.00,28.28,31.87,34.32,14.15,47.67,1010.25,2017.93,2608.12,2470.02,2781.00,600.46,582.41,46.13,0000 0000 0000 0000 000000
2016-07-31 08:53:00,0.00,2.23,0.00,28.31,31.90,34.30,14.09,47.65,1010.26,2017.89,2608.00,2470.00,2780.97,599.95,581.89,46.18,0000 0000 0000 0000 000000
2016-07-31 08:58:02,-0.00,2.23,0.00,28.35,31.92,34.32,14.05,47.63,1010.24,2017.75,2607.98,2469.99,2780.55,599.83,581.68,46.23,0000 0000 0000 0000 000000
2016-07-31 09:03:03,-0.01,2.23,0.00,28.40,31.94,34.33,14.14,47.67,1010.26,2017.40,2607.58,2469.84,2780.05,600.14,581.79,46.28,0000 0000 0000 0000 000000
2016-07-31 09:08:04,0.01,2.23,0.00,28.43,31.96,34.38,14.07,47.67,1010.25,2017.10,2607.04,2469.26,2780.00,599.79,581.45,46.33,0000 0000 0000 0000 000000
2016-07-31 09:13:05,0.00,2.23,0.00,28.46,31.99,34.38,14.13,47.60,1010.24,2017.02,2607.00,2469.02,2779.97,600.29,581.82,46.38,0000 0000 0000 0000 000000
2016-07-31 09:18:07,0.01,2.23,0.00,28.49,32.01,34.42,14.07,47.51,1010.22,2017.01,2606.89,2469.00,2779.56,599.89,581.40,46.44,0000 0000 0000 0000 000000
2016-07-31 09:23:08,0.02,2.23,0.00,28.50,32.03,34.44,14.06,47.74,1010.18,2017.00,2606.23,2468.95,2779.03,599.94,581.40,46.49,0000 0000 0000 0000 000000
2016-07-31 09:28:09,0.02,2.23,0.00,28.52,32.06,34.45,14.07,47.71,1010.14,2017.00,2606.01,2468.46,2778.99,600.15,581.56,46.54,0000 0000 0000 0000 000000
2016-07-31 09:33:11,0.02,2.23,0.00,28.53,32.07,34.48,14.09,47.80,1010.08,2017.00,2605.62,2468.02,2778.63,599.90,581.26,46.59,0000 0000 0000 0000 000000
2016-07-31 09:38:12,0.02,2.24,0.00,28.56,32.10,34.49,14.15,47.65,1010.09,2017.00,2605.06,2468.00,2778.07,600.42,581.65,46.64,0000 0000 0000 0000 000000
2016-07-31 09:43:13,0.00,2.24,0.00,28.59,32.12,34.52,14.10,47.65,1010.06,2016.96,2604.99,2467.94,2778.00,600.05,581.36,46.69,0000 0000 0000 0000 000000
2016-07-31 09:48:15,0.04,2.24,0.00,28.62,32.15,34.56,14.07,47.60,1009.86,2016.89,2604.49,2467.27,2777.81,599.89,580.94,46.74,0000 0000 0000 0000 000000
2016-07-31 09:53:16,0.01,2.24,0.00,28.63,32.16,34.55,14.13,47.75,1009.86,2016.86,2604.03,2467.02,2777.29,600.02,581.17,46.79,0000 0000 0000 0000 000000
2016-07-31 09:58:17,-0.04,2.24,0.00,28.65,32.19,34.59,14.10,47.72,1009.87,2016.48,2603.93,2467.00,2777.00,600.27,581.27,46.84,0000 0000 0000 0000 000000
2016-07-31 10:03:18,0.00,2.24,0.00,28.66,32.21,34.62,14.05,47.52,1009.82,2016.12,2603.26,2466.84,2776.92,599.67,580.62,46.89,0000 0000 0000 0000 000000
2016-07-31 10:08:19,0.03,2.24,0.00,28.67,32.22,34.64,14.06,47.64,1009.84,2016.02,2602.99,2466.14,2776.18,599.76,580.67,46.94,0000 0000 0000 0000 000000
2016-07-31 10:13:20,0.01,2.24,0.00,28.69,32.25,34.66,14.01,47.60,1009.91,2016.00,2602.48,2466.02,2776.00,599.33,580.35,46.99,0000 0000 0000 0000 000000
2016-07-31 10:18:22,0.00,2.24,0.00,28.72,32.27,34.65,14.08,47.57,1009.86,2016.00,2602.02,2465.99,2775.96,599.94,580.87,47.04,0000 0000 0000 0000 000000
2016-07-31 10:23:23,0.03,2.24,0.00,28.74,32.29,34.67,14.06,47.75,1009.81,2016.00,2601.81,2465.70,2775.50,599.72,580.51,47.09,0000 0000 0000 0000 000000
2016-07-31 10:28:24,0.04,2.24,0.00,28.77,32.31,34.66,14.02,47.59,1009.81,2016.00,2601.10,2465.07,2775.02,599.67,580.34,47.14,0000 0000 0000 0000 000000
2016-07-31 10:33:25,0.00,2.24,0.00,28.80,32.34,34.71,14.12,47.81,1009.82,2016.00,2600.99,2465.00,2774.95,600.05,580.77,47.19,0000 0000 0000 0000 000000
2016-07-31 10:38:27,0.03,2.25,0.00,28.80,32.36,34.74,14.02,47.71,1009.79,2015.98,2600.35,2464.92,2774.28,599.84,580.44,47.24,0000 0000 0000 0000 000000
2016-07-31 10:43:28,0.02,2.25,0.00,28.82,32.38,34.77,14.08,47.56,1009.79,2015.95,2599.99,2464.25,2774.00,599.91,580.56,47.29,0000 0000 0000 0000 000000
2016-07-31 10:48:30,-0.00,2.25,0.00,28.82,32.40,34.81,14.06,47.62,1009.78,2015.70,2599.40,2464.01,2773.75,599.87,580.46,47.34,0000 0000 0000 0000 000000
2016-07-31 10:53:31,-0.03,2.25,0.00,28.84,32.42,34.82,14.13,47.65,1009.78,2015.27,2599.01,2463.97,2773.10,600.12,580.69,47.39,0000 0000 0000 0000 000000
2016-07-31 10:58:33,0.01,2.25,0.00,28.84,32.45,34.87,14.12,47.68,1009.78,2015.13,2598.87,2463.62,2773.00,599.95,580.52,47.45,0000 0000 0000 0000 000000
2016-07-31 11:03:34,0.03,2.25,0.00,28.83,32.46,34.86,14.17,47.79,1009.78,2015.07,2598.13,2463.08,2772.79,600.16,580.75,47.50,0000 0000 0000 0000 000000
2016-07-31 11:08:35,0.00,2.25,0.00,28.85,32.48,34.90,14.00,47.67,1009.78,2015.01,2597.96,2463.00,2772.08,599.86,580.53,47.55,0000 0000 0000 0000 000000
2016-07-31 11:13:36,0.03,2.25,0.00,28.85,32.50,34.92,14.08,47.77,1009.78,2015.00,2597.32,2462.79,2772.00,599.87,580.48,47.60,0000 0000 0000 0000 000000
2016-07-31 11:18:38,0.03,2.25,0.00,28.84,32.51,34.93,14.07,47.61,1009.78,2014.99,2596.98,2462.16,2771.74,600.30,580.87,47.65,0000 0000 0000 0000 000000
2016-07-31 11:23:39,0.03,2.25,0.00,28.86,32.52,34.96,14.11,47.55,1009.78,2014.97,2596.43,2462.00,2771.07,600.35,580.81,47.70,0000 0000 0000 0000 000000
2016-07-31 11:28:40,0.00,2.25,0.00,28.85,32.55,35.02,14.13,47.67,1009.78,2014.92,2596.01,2461.96,2770.99,599.94,580.47,47.75,0000 0000 0000 0000 000000
2016-07-31 11:33:41,0.02,2.25,0.00,28.87,32.55,35.02,14.09,47.52,1009.78,2014.86,2595.81,2461.57,2770.80,600.00,580.58,47.80,0000 0000 0000 0000 000000
2016-07-31 11:38:43,0.02,2.26,0.00,28.89,32.57,35.05,14.05,47.52,1009.77,2014.69,2595.10,2461.10,2770.14,599.67,580.20,47.85,0000 0000 0000 0000 000000
2016-07-31 11:43:44,-0.03,2.26,0.00,28.89,32.58,35.02,14.10,47.73,1009.78,2014.27,2594.94,2461.00,2769.99,599.98,580.46,47.90,0000 0000 0000 0000 000000
2016-07-31 11:48:45,0.01,2.26,0.00,28.89,32.60,35.07,14.09,47.57,1009.77,2014.13,2594.16,2460.94,2769.79,599.89,580.38,47.95,0000 0000 0000 0000 000000
2016-07-31 11:53:47,0.02,2.26,0.00,28.89,32.60,35.05,14.08,47.52,1009.78,2014.04,2593.99,2460.36,2769.11,600.09,580.46,48.00,0000 0000 0000 0000 000000
2016-07-31 11:58:48,0.02,2.26,0.00,28.90,32.62,35.11,14.09,47.62,1009.78,2014.02,2593.45,2460.02,2769.00,600.08,580.47,48.05,0000 0000 0000 0000 000000
2016-07-31 12:03:49,0.01,2.26,0.00,28.93,32.62,35.12,14.03,47.54,1009.77,2014.00,2593.00,2460.00,2768.77,599.76,580.19,48.10,0000 0000 0000 0000 000000
2016-07-31 12:08:51,0.03,2.26,0.00,28.92,32.64,35.14,14.06,47.68,1009.77,2014.00,2592.64,2459.83,2768.09,599.67,580.05,48.15,0000 0000 0000 0000 000000
2016-07-31 12:13:52,0.03,2.26,0.00,28.92,32.65,35.13,14.14,47.69,1009.74,2014.00,2592.03,2459.21,2768.00,599.84,580.31,48.20,0000 0000 0000 0000 000000
2016-07-31 12:18:54,0.01,2.26,0.00,28.93,32.65,35.16,14.12,47.69,1009.74,2014.00,2591.84,2459.01,2767.82,600.10,580.47,48.25,0000 0000 0000 0000 000000
2016-07-31 12:23:55,0.03,2.26,0.00,28.94,32.67,35.19,14.15,47.74,1009.76,2014.00,2591.12,2458.99,2767.18,600.18,580.59,48.30,0000 0000 0000 0000 000000
2016-07-31 12:28:56,0.01,2.27,0.00,28.93,32.67,35.17,14.08,47.58,1009.77,2014.00,2590.98,2458.81,2767.01,600.00,580.35,48.36,0000 0000 0000 0000 000000
2016-07-31 12:33:57,0.03,2.27,0.00,28.94,32.68,35.18,13.98,47.51,1009.76,2013.99,2590.61,2458.35,2766.97,599.64,579.89,48.41,0000 0000 0000 0000 000000
2016-07-31 12:38:59,0.02,2.27,0.00,28.94,32.70,35.21,14.12,47.58,1009.75,2013.99,2590.04,2458.03,2766.63,600.24,580.59,48.46,0000 0000 0000 0000 000000
2016-07-31 12:44:00,0.00,2.27,0.00,28.95,32.70,35.21,14.09,47.59,1009.76,2013.98,2589.95,2458.00,2766.07,599.96,580.31,48.51,0000 0000 0000 0000 000000
2016-07-31 12:49:01,0.01,2.27,0.00,28.95,32.71,35.23,14.07,47.58,1009.74,2013.96,2589.25,2457.96,2765.99,600.08,580.40,48.56,0000 0000 0000 0000 000000
2016-07-31 12:54:03,0.02,2.27,0.00,28.95,32.72,35.26,14.14,47.66,1009.63,2013.88,2589.00,2457.45,2765.73,599.91,580.20,48.61,0000 0000 0000 0000 000000